User: anonymous   Login
Location: Unspecified
(0.0000°N, 0.0000°E)
Time: 20:08:46
(UTC+00:00)
Language:

TBA - TO BE ASSIGNED - Orbit

View from above orbital plane
View from above orbital plane
View from above satellite
View from above satellite

Ground track
Ground track

The orbit is defined by the following mean orbital elements,

1 68814U          26145.55659854 +.00000000 +00000-0 +16399-2 0 00005
2 68814  97.2864 352.2331 0001109 108.4306 251.7080 15.75284464    06
Epoch (UTC): 25 May 2026 13:21:30
Eccentricity: 0.0001109
inclination: 97.2864°
perigee height: 343 km
apogee height: 345 km
right ascension of ascending node: 352.2331°
argument of perigee: 108.4306°
revolutions per day: 15.75284464
mean anomaly at epoch: 251.7080°

The dashed part of the orbit path shows where the satellite is in the earth's shadow,  

DLR